Location: Unspecified
(35.7250°N, 0.0000°E)
Time: 12:07:51
(UTC+00:00)

Explorer 7 - Pass Details

Date: 19 June 2019
Orbit: 485 x 680 km, 50.3° (Epoch: 19 July)

Event Time Altitude Azimuth Distance (km) Brightness Sun altitude
Rises 10:02:46 0° 252° (WSW) 2,770 10.2 61.6°
Reaches altitude 10° 10:05:06 10° 260° (W) 1,908 9.4 62.0°
Maximum altitude 10:09:11 38° 329° (NNW) 942 8.3 62.8°
Drops below altitude 10° 10:13:33 10° 38° (NE) 2,028 10.0 63.7°
Sets 10:16:05 0° 46° (NE) 2,968 10.7 64.1°
